�N����,����,�~����,�C��,���x,�C��,����,���ϕ���,�ő�u�ԕ���,�ő厞����,���˗�,�I�_���x,�n�����x,�ő啗���N��,DTYPE
"16/09/18","00:10",0.0,23.7,87.2,1005.7,305.2,0.7,1.0,308.7,0.00,21.5,25.1,"00:04:00",1
"16/09/18","00:20",0.0,23.6,87.5,1005.2,333.5,0.8,1.2,335.6,0.00,21.4,25.1,"00:11:44",1
"16/09/18","00:30",0.0,23.6,87.5,1004.8,286.7,0.6,0.9,334.4,0.00,21.4,25.3,"00:20:32",1
"16/09/18","00:40",0.0,23.5,87.9,1004.1,295.2,0.6,1.1,330.6,0.00,21.4,25.2,"00:33:20",1
"16/09/18","00:50",0.0,23.4,88.5,1004.3,297.1,0.7,1.2,333.8,0.00,21.4,25.2,"00:40:08",1
"16/09/18","01:00",0.0,23.3,88.5,1004.8,306.4,0.7,1.3,322.8,0.00,21.3,24.9,"00:56:32",1
"16/09/18","01:10",0.0,23.4,88.2,1004.3,328.2,0.5,1.3,4.1,0.00,21.4,25.1,"01:08:56",1
"16/09/18","01:20",0.0,23.5,88.4,1003.8,310.5,0.7,1.3,333.2,0.00,21.5,25.0,"01:15:28",1
"16/09/18","01:30",0.0,23.3,88.5,1004.3,284.3,0.7,1.0,304.0,0.00,21.3,25.0,"01:21:44",1
"16/09/18","01:40",0.0,23.2,88.3,1004.3,289.5,0.7,1.1,308.8,0.00,21.2,25.3,"01:32:16",1
"16/09/18","01:50",0.0,23.3,88.0,1004.5,301.6,0.7,1.0,326.0,0.00,21.2,24.8,"01:43:12",1
"16/09/18","02:00",0.0,23.4,88.3,1004.3,321.0,0.6,1.1,324.6,0.00,21.4,24.8,"01:55:36",1
"16/09/18","02:10",0.2,23.3,89.0,1004.3,300.7,0.8,1.1,317.5,0.00,21.4,24.7,"02:06:40",1
"16/09/18","02:20",0.2,23.1,89.8,1004.1,305.9,0.7,1.4,313.5,0.00,21.4,25.0,"02:19:36",1
"16/09/18","02:30",0.2,23.0,90.7,1003.8,313.0,0.8,1.1,324.0,0.00,21.4,24.9,"02:21:04",1
"16/09/18","02:40",0.2,22.9,91.5,1003.6,303.0,0.7,1.0,311.5,0.00,21.5,24.9,"02:30:16",1
"16/09/18","02:50",0.2,22.8,92.1,1003.1,300.8,0.7,0.9,302.5,0.00,21.5,25.1,"02:41:28",1
"16/09/18","03:00",0.4,22.7,92.6,1003.6,320.7,0.8,1.3,343.4,0.00,21.5,24.7,"02:50:56",1
"16/09/18","03:10",0.4,22.7,93.0,1003.8,292.6,0.7,1.0,265.5,0.00,21.5,24.8,"03:09:36",1
"16/09/18","03:20",0.6,22.7,93.4,1003.8,278.3,0.6,1.1,270.6,0.00,21.6,24.5,"03:10:24",1
"16/09/18","03:30",0.4,22.7,93.6,1004.1,263.8,0.2,0.8,307.5,0.00,21.7,24.9,"03:21:20",1
"16/09/18","03:40",0.6,22.8,93.9,1003.8,278.7,0.6,0.9,313.2,0.00,21.8,24.7,"03:33:52",1
"16/09/18","03:50",1.2,22.8,94.1,1004.1,267.4,0.3,0.6,241.8,0.00,21.8,24.7,"03:47:14",1
"16/09/18","04:00",1.2,22.8,94.2,1004.3,312.7,0.3,0.9,311.7,0.00,21.9,24.7,"03:59:42",1
"16/09/18","04:10",1.4,22.9,94.4,1004.3,313.4,0.5,1.1,4.7,0.00,22.0,24.7,"04:08:56",1
"16/09/18","04:20",1.0,22.9,94.5,1003.4,39.4,0.3,1.1,3.3,0.00,22.0,24.6,"04:10:32",1
"16/09/18","04:30",1.0,22.9,94.7,1002.9,204.8,0.2,0.9,201.2,0.00,22.0,24.4,"04:29:58",1
"16/09/18","04:40",0.6,23.0,94.7,1003.1,293.6,0.6,1.0,310.4,0.00,22.1,24.6,"04:33:54",1
"16/09/18","04:50",0.4,23.0,94.8,1003.4,301.4,0.3,0.6,319.9,0.00,22.2,24.5,"04:45:04",1
"16/09/18","05:00",0.4,23.0,94.8,1003.4,329.3,0.6,2.1,354.4,0.00,22.2,24.4,"04:57:30",1
"16/09/18","05:10",0.0,22.9,95.0,1003.6,285.0,0.6,1.2,339.8,0.00,22.1,24.5,"05:05:52",1
"16/09/18","05:20",0.2,22.9,95.1,1003.4,329.9,0.8,1.4,344.5,0.00,22.1,24.6,"05:13:52",1
"16/09/18","05:30",0.0,22.9,95.1,1003.6,279.6,0.2,0.6,261.8,0.00,22.1,24.6,"05:22:24",1
"16/09/18","05:40",1.2,23.0,95.2,1003.4,218.9,0.3,1.1,200.2,0.00,22.2,24.7,"05:35:54",1
"16/09/18","05:50",0.2,23.0,95.1,1003.4,172.6,0.2,1.2,105.0,0.00,22.2,24.6,"05:43:04",1
"16/09/18","06:00",0.2,22.9,95.2,1003.4,176.2,0.2,1.2,122.7,0.00,22.1,24.4,"05:54:36",1
"16/09/18","06:10",0.2,22.8,94.8,1003.8,167.3,0.6,1.6,120.5,0.00,22.0,24.5,"06:09:10",1
"16/09/18","06:20",0.0,22.7,95.0,1003.4,153.4,0.7,1.8,132.4,0.00,21.9,24.3,"06:11:06",1
"16/09/18","06:30",0.2,22.7,95.0,1003.4,207.6,0.3,0.9,196.9,0.00,21.9,24.4,"06:27:18",1
"16/09/18","06:40",0.4,22.7,95.1,1003.1,323.9,0.3,1.0,193.5,0.00,21.9,24.5,"06:30:16",1
"16/09/18","06:50",0.2,22.7,95.0,1003.6,337.9,0.7,2.1,340.2,0.00,21.9,24.3,"06:43:20",1
"16/09/18","07:00",0.0,22.7,95.0,1003.6,321.7,0.6,1.1,326.0,0.00,21.9,24.5,"06:51:22",1
"16/09/18","07:10",0.2,22.7,95.0,1003.6,319.3,0.5,1.1,350.1,0.00,21.9,24.2,"07:07:10",1
"16/09/18","07:20",0.2,22.8,95.2,1003.6,41.1,0.2,1.0,5.8,0.00,22.0,24.5,"07:18:50",1
"16/09/18","07:30",0.0,22.9,95.1,1004.1,353.3,0.6,1.2,2.3,0.00,22.1,24.4,"07:24:16",1
"16/09/18","07:40",0.0,23.0,95.2,1003.8,10.6,0.6,1.6,6.7,0.00,22.2,24.4,"07:34:24",1
"16/09/18","07:50",0.0,23.0,95.0,1003.8,103.1,0.5,1.3,97.1,0.01,22.2,24.4,"07:40:48",1
"16/09/18","08:00",0.0,23.2,95.0,1003.4,197.5,0.5,1.3,214.6,0.03,22.4,24.4,"07:51:20",1
"16/09/18","08:10",0.0,23.3,94.7,1003.4,206.1,0.8,2.4,200.5,0.02,22.4,24.5,"08:07:28",1
"16/09/18","08:20",0.0,23.3,94.6,1003.6,205.3,0.6,1.7,214.0,0.02,22.4,24.5,"08:10:48",1
"16/09/18","08:30",0.0,23.6,94.5,1003.6,152.7,0.5,1.3,215.8,0.04,22.7,24.7,"08:25:28",1
"16/09/18","08:40",0.0,23.8,94.3,1003.8,157.0,0.2,1.0,126.7,0.05,22.9,24.7,"08:35:04",1
"16/09/18","08:50",0.0,23.8,93.9,1003.4,334.6,0.3,1.0,354.9,0.02,22.8,24.4,"08:43:44",1
"16/09/18","09:00",0.0,23.9,93.7,1003.6,27.6,0.3,0.8,355.7,0.04,22.9,24.4,"08:54:24",1
"16/09/18","09:10",0.0,24.0,93.5,1003.8,125.3,0.5,1.4,219.8,0.03,22.9,24.8,"09:08:24",1
"16/09/18","09:20",0.0,23.9,93.3,1003.6,189.5,1.0,2.2,194.7,0.03,22.8,24.6,"09:17:12",1
"16/09/18","09:30",0.0,24.1,93.5,1003.8,182.1,0.7,1.8,131.7,0.05,23.0,24.5,"09:25:20",1
"16/09/18","09:40",0.0,24.4,93.3,1003.6,211.6,0.6,1.6,211.7,0.07,23.3,24.6,"09:36:08",1
"16/09/18","09:50",0.0,24.4,92.9,1003.4,159.3,0.5,1.3,133.6,0.06,23.2,24.8,"09:46:32",1
"16/09/18","10:00",0.0,24.3,92.7,1003.6,103.5,0.3,1.0,197.0,0.01,23.1,24.6,"09:52:48",1
"16/09/18","10:10",0.2,24.2,92.7,1003.4,166.1,0.7,2.0,142.5,0.02,23.0,24.5,"10:07:44",1
"16/09/18","10:20",0.2,24.5,92.7,1003.1,193.5,0.6,1.9,203.4,0.07,23.3,24.5,"10:10:02",1
"16/09/18","10:30",0.0,24.3,92.4,1003.4,200.3,1.1,2.0,229.8,0.04,23.0,24.7,"10:21:52",1
"16/09/18","10:40",0.0,24.4,92.9,1002.9,181.1,1.0,2.2,149.3,0.08,23.2,24.8,"10:31:12",1
"16/09/18","10:50",0.0,24.6,92.6,1003.1,160.1,0.6,1.4,167.0,0.09,23.4,24.9,"10:49:44",1
"16/09/18","11:00",0.0,24.9,92.3,1003.1,123.3,0.5,1.2,153.4,0.12,23.6,24.8,"10:50:24",1
"16/09/18","11:10",0.0,24.9,91.7,1002.6,80.6,0.5,1.1,83.1,0.07,23.5,24.7,"11:03:36",1
"16/09/18","11:20",0.0,25.1,91.5,1002.6,136.8,0.3,1.1,132.3,0.11,23.7,24.9,"11:10:24",1
"16/09/18","11:30",0.0,25.1,91.5,1002.4,154.9,0.3,1.2,161.2,0.10,23.7,25.0,"11:20:16",1
"16/09/18","11:40",0.0,25.3,89.9,1002.4,153.4,0.5,1.6,151.4,0.15,23.6,24.9,"11:39:36",1
"16/09/18","11:50",0.0,25.4,89.4,1002.6,180.5,1.0,2.1,227.3,0.08,23.6,25.1,"11:48:00",1
"16/09/18","12:00",0.0,25.3,90.5,1002.2,189.2,0.8,1.7,162.2,0.08,23.7,25.0,"11:50:16",1
"16/09/18","12:10",0.2,25.0,90.8,1001.9,164.9,0.7,1.6,125.0,0.05,23.4,25.1,"12:05:44",1
"16/09/18","12:20",0.2,24.9,91.3,1001.7,168.2,0.7,1.4,220.1,0.04,23.4,24.9,"12:13:12",1
"16/09/18","12:30",0.4,25.0,92.0,1001.9,132.7,0.5,1.7,133.3,0.05,23.6,25.0,"12:23:36",1
"16/09/18","12:40",0.4,25.0,92.3,1001.7,63.8,0.5,1.0,132.9,0.05,23.7,25.1,"12:32:48",1
"16/09/18","12:50",0.2,25.3,92.2,1001.5,39.4,0.3,0.9,352.0,0.07,24.0,25.1,"12:42:16",1
"16/09/18","13:00",0.0,25.2,92.0,1001.5,352.0,0.7,1.4,347.8,0.05,23.8,25.2,"12:58:48",1
"16/09/18","13:10",0.2,25.3,92.3,1001.7,356.3,0.6,1.2,350.5,0.06,24.0,25.3,"13:03:04",1
"16/09/18","13:20",0.4,25.3,92.2,1001.5,318.3,0.3,1.3,350.4,0.05,24.0,25.2,"13:16:40",1
"16/09/18","13:30",0.0,25.5,92.4,1001.5,243.1,0.1,0.6,342.0,0.06,24.2,25.4,"13:22:24",1
"16/09/18","13:40",0.2,25.5,92.2,1001.2,238.8,0.0,0.3,238.9,0.05,24.2,25.2,"13:34:32",1
"16/09/18","13:50",0.2,25.6,92.2,1001.5,201.0,0.3,1.1,219.3,0.09,24.3,25.3,"13:48:48",1
"16/09/18","14:00",0.0,25.8,92.0,1001.2,189.5,0.3,1.2,209.5,0.11,24.4,25.2,"13:51:28",1
"16/09/18","14:10",0.0,25.9,91.5,1001.5,295.0,0.2,1.0,15.3,0.09,24.4,25.2,"14:08:56",1
"16/09/18","14:20",0.2,26.2,91.1,1001.0,1.3,0.6,1.2,359.9,0.07,24.7,25.5,"14:16:08",1
"16/09/18","14:30",0.0,26.2,91.4,1001.0,358.6,0.3,1.0,20.6,0.09,24.7,25.4,"14:25:04",1
"16/09/18","14:40",0.0,26.3,90.5,1001.0,148.4,0.3,1.1,172.6,0.08,24.7,25.4,"14:35:44",1
"16/09/18","14:50",0.0,26.3,89.6,1000.8,65.3,0.2,0.9,33.1,0.07,24.5,25.3,"14:49:04",1
"16/09/18","15:00",0.0,26.4,89.3,1001.0,12.4,0.3,1.1,344.1,0.07,24.5,25.4,"14:59:36",1
"16/09/18","15:10",0.0,26.4,89.3,1000.8,338.1,0.6,1.2,349.1,0.05,24.5,25.3,"15:00:32",1
"16/09/18","15:20",0.0,26.4,89.7,1001.0,330.9,0.2,0.8,353.7,0.02,24.6,25.4,"15:10:16",1
"16/09/18","15:30",0.0,26.1,89.5,1001.5,336.0,0.2,1.0,348.1,0.02,24.3,25.5,"15:28:32",1
"16/09/18","15:40",0.2,26.2,90.5,1000.8,27.3,0.3,1.2,1.7,0.02,24.6,25.6,"15:31:12",1
"16/09/18","15:50",0.0,25.9,90.0,1000.8,40.8,0.3,1.0,346.1,0.00,24.2,25.4,"15:48:56",1
"16/09/18","16:00",0.4,25.8,91.1,1001.0,359.4,0.6,1.3,336.1,0.00,24.3,25.5,"15:52:48",1
"16/09/18","16:10",1.0,25.6,91.8,1001.0,3.4,0.6,1.1,12.4,0.00,24.2,25.5,"16:00:32",1
"16/09/18","16:20",6.0,25.2,92.2,1001.7,328.7,1.0,2.5,342.2,0.00,23.9,25.5,"16:14:42",1
"16/09/18","16:30",17.4,23.9,90.9,1002.2,333.3,1.5,2.8,318.3,0.00,22.4,25.0,"16:26:36",1
"16/09/18","16:40",4.6,22.9,92.4,1002.4,262.4,1.5,3.7,236.7,0.00,21.6,24.8,"16:39:14",1
"16/09/18","16:50",3.0,22.6,93.2,1002.4,291.3,0.5,1.9,237.2,0.00,21.5,24.8,"16:40:16",1
"16/09/18","17:00",3.8,22.5,93.9,1002.2,321.7,0.6,1.3,356.9,0.00,21.5,24.8,"16:55:12",1
"16/09/18","17:10",7.4,22.6,94.6,1002.2,292.3,1.2,2.1,198.5,0.00,21.7,24.6,"17:09:54",1
"16/09/18","17:20",8.4,22.7,94.9,1002.4,252.3,1.1,2.5,219.1,0.00,21.9,24.7,"17:10:08",1
"16/09/18","17:30",9.4,22.6,94.3,1002.4,274.6,1.0,4.2,231.3,0.00,21.7,24.6,"17:27:22",1
"16/09/18","17:40",8.8,22.2,94.6,1001.9,218.0,1.1,2.7,235.3,0.00,21.3,24.6,"17:33:30",1
"16/09/18","17:50",0.6,22.2,95.0,1002.2,332.5,1.1,1.8,326.3,0.00,21.4,24.4,"17:44:32",1
"16/09/18","18:00",1.6,22.2,95.2,1001.5,290.4,0.6,1.1,352.9,0.00,21.4,24.3,"17:51:52",1
"16/09/18","18:10",1.2,22.2,95.4,1001.9,266.6,0.8,2.4,227.2,0.00,21.5,24.5,"18:04:16",1
"16/09/18","18:20",2.6,22.3,95.5,1002.4,299.1,0.6,1.4,328.9,0.00,21.6,24.3,"18:17:12",1
"16/09/18","18:30",4.4,22.4,95.7,1002.4,315.7,0.6,1.6,345.3,0.00,21.7,24.0,"18:25:20",1
"16/09/18","18:40",7.6,22.6,95.6,1002.6,224.9,1.3,2.8,237.6,0.00,21.9,24.2,"18:34:24",1
"16/09/18","18:50",4.0,22.6,95.8,1002.2,342.2,0.6,1.8,239.1,0.00,21.9,24.2,"18:40:08",1
"16/09/18","19:00",3.4,22.6,95.7,1002.4,228.3,1.6,3.2,214.6,0.00,21.9,24.2,"18:59:36",1
"16/09/18","19:10",2.4,22.5,95.9,1002.4,190.5,0.8,2.4,187.5,0.00,21.9,24.1,"19:00:16",1
"16/09/18","19:20",0.8,22.4,95.9,1002.4,174.0,0.6,1.4,197.5,0.00,21.8,24.2,"19:10:56",1
"16/09/18","19:30",0.6,22.5,96.0,1002.4,105.5,0.7,1.8,126.1,0.00,21.9,24.1,"19:26:08",1
"16/09/18","19:40",0.4,22.4,96.0,1003.1,303.2,0.8,2.2,334.6,0.00,21.8,24.2,"19:33:04",1
"16/09/18","19:50",0.4,22.4,96.0,1002.6,304.1,0.5,0.8,311.7,0.00,21.8,24.0,"19:41:12",1
"16/09/18","20:00",0.0,22.4,96.1,1002.9,258.0,0.3,0.8,238.2,0.00,21.8,23.9,"19:57:52",1
"16/09/18","20:10",0.0,22.4,96.1,1002.9,296.2,0.3,0.9,342.8,0.00,21.8,24.1,"20:05:44",1
"16/09/18","20:20",0.0,22.4,96.3,1002.6,332.5,0.5,1.0,352.0,0.00,21.8,24.1,"20:16:16",1
"16/09/18","20:30",0.0,22.4,96.3,1002.6,289.8,0.2,0.6,318.6,0.00,21.8,24.1,"20:20:08",1
"16/09/18","20:40",0.0,22.5,96.4,1002.4,326.8,0.5,0.6,327.1,0.00,21.9,24.1,"20:33:52",1
"16/09/18","20:50",0.0,22.5,96.4,1002.9,322.9,0.5,0.6,342.7,0.00,21.9,24.2,"20:40:32",1
"16/09/18","21:00",0.2,22.5,96.4,1002.9,306.6,0.5,0.6,302.2,0.00,21.9,24.0,"20:53:28",1
"16/09/18","21:10",0.4,22.5,96.4,1002.9,229.3,0.5,1.0,324.1,0.00,21.9,24.0,"21:09:12",1
"16/09/18","21:20",0.2,22.5,96.4,1003.1,324.2,0.5,1.1,344.9,0.00,21.9,24.1,"21:11:12",1
"16/09/18","21:30",0.6,22.5,96.4,1003.1,325.1,0.5,1.2,325.4,0.00,21.9,24.1,"21:27:12",1
"16/09/18","21:40",0.8,22.5,96.5,1003.1,243.3,0.1,0.5,288.7,0.00,22.0,24.1,"21:30:08",1
"16/09/18","21:50",0.2,22.4,96.5,1002.6,316.0,0.2,0.8,322.8,0.00,21.9,23.9,"21:42:32",1
"16/09/18","22:00",0.2,22.4,96.6,1003.1,269.3,0.5,0.8,328.2,0.00,21.9,23.9,"21:57:04",1
"16/09/18","22:10",0.0,22.5,96.6,1002.9,359.6,0.5,1.2,325.6,0.00,22.0,24.0,"22:09:44",1
"16/09/18","22:20",0.0,22.5,96.6,1002.9,345.7,0.3,1.0,344.5,0.00,22.0,24.0,"22:11:52",1
"16/09/18","22:30",0.2,22.5,96.6,1002.9,329.4,0.5,1.4,325.7,0.00,22.0,24.2,"22:20:08",1
"16/09/18","22:40",0.0,22.5,96.6,1002.9,298.1,0.5,0.9,337.3,0.00,22.0,24.0,"22:35:12",1
"16/09/18","22:50",0.0,22.5,96.7,1003.1,272.8,0.3,0.5,305.5,0.00,22.0,24.1,"22:45:44",1
"16/09/18","23:00",0.0,22.5,96.7,1002.9,298.6,0.6,0.9,335.6,0.00,22.0,24.2,"22:59:20",1
"16/09/18","23:10",0.0,22.5,96.7,1002.6,328.1,0.6,1.0,346.1,0.00,22.0,23.9,"23:00:02",1
"16/09/18","23:20",0.2,22.5,96.7,1002.6,340.5,0.7,1.6,335.8,0.00,22.0,24.0,"23:17:44",1
"16/09/18","23:30",0.2,22.4,96.7,1002.4,307.6,0.6,1.1,3.9,0.00,21.9,23.9,"23:24:16",1
"16/09/18","23:40",0.2,22.4,96.7,1002.4,246.7,0.3,0.8,306.0,0.00,21.9,23.8,"23:37:28",1
"16/09/18","23:50",0.6,22.4,96.8,1002.4,311.7,0.6,1.0,333.3,0.00,21.9,24.1,"23:47:36",1
"16/09/18","24:00",0.0,22.4,96.8,1002.4,316.6,0.3,0.6,305.9,0.00,21.9,24.1,"23:50:08",1
